Time,TemperatureF,DewpointF,PressureIn,WindDirection,WindDirectionDegrees,WindSpeedMPH,WindSpeedGustMPH,Humidity,HourlyPrecipIn,Conditions,Clouds,dailyrainin,SoftwareType,DateUTC
2013-02-26 00:01:00,32.0,21.0,30.19,East,86,0.0,3.0,63,0.00,,,0.00,,2013-02-26 05:01:00,
2013-02-26 00:12:00,32.0,21.0,30.19,East,86,0.0,3.0,63,0.00,,,0.00,,2013-02-26 05:12:00,
2013-02-26 00:22:00,32.0,21.0,30.20,East,86,0.0,0.0,64,0.00,,,0.00,,2013-02-26 05:22:00,
2013-02-26 00:32:00,32.0,21.0,30.20,East,86,0.0,0.0,64,0.00,,,0.00,,2013-02-26 05:32:00,
2013-02-26 00:43:00,32.0,21.0,30.20,East,86,0.0,0.0,64,0.00,,,0.00,,2013-02-26 05:43:00,
2013-02-26 00:52:00,31.0,21.0,30.19,South,169,1.0,4.0,67,0.00,,,0.00,,2013-02-26 05:52:00,
2013-02-26 01:02:00,32.0,21.0,30.20,ESE,118,0.0,2.0,63,0.00,,,0.00,,2013-02-26 06:02:00,
2013-02-26 01:11:00,32.0,21.0,30.20,ESE,118,0.0,2.0,63,0.00,,,0.00,,2013-02-26 06:11:00,
2013-02-26 01:22:00,32.0,21.0,30.20,SE,146,0.0,4.0,64,0.00,,,0.00,,2013-02-26 06:22:00,
2013-02-26 01:32:00,32.0,21.0,30.19,SW,218,4.0,8.0,63,0.00,,,0.00,,2013-02-26 06:32:00,
2013-02-26 01:42:00,32.0,21.0,30.19,SW,218,4.0,8.0,63,0.00,,,0.00,,2013-02-26 06:42:00,
2013-02-26 01:52:00,33.0,21.0,30.19,SW,229,3.0,7.0,62,0.00,,,0.00,,2013-02-26 06:52:00,
2013-02-26 02:01:00,33.0,21.0,30.18,SSW,193,4.0,7.0,62,0.00,,,0.00,,2013-02-26 07:01:00,
2013-02-26 02:11:00,33.0,21.0,30.18,SSW,193,4.0,7.0,62,0.00,,,0.00,,2013-02-26 07:11:00,
2013-02-26 02:22:00,33.0,21.0,30.17,SSW,212,3.0,7.0,61,0.00,,,0.00,,2013-02-26 07:22:00,
2013-02-26 02:32:00,33.0,21.0,30.16,West,260,6.0,11.0,61,0.00,,,0.00,,2013-02-26 07:32:00,
2013-02-26 02:42:00,33.0,21.0,30.16,West,260,6.0,11.0,61,0.00,,,0.00,,2013-02-26 07:42:00,
2013-02-26 02:51:00,33.0,21.0,30.16,SW,229,5.0,11.0,61,0.00,,,0.00,,2013-02-26 07:51:00,
2013-02-26 03:02:00,33.0,21.0,30.15,SW,226,5.0,10.0,61,0.00,,,0.00,,2013-02-26 08:02:00,
2013-02-26 03:11:00,33.0,21.0,30.15,SW,226,5.0,10.0,61,0.00,,,0.00,,2013-02-26 08:11:00,
2013-02-26 03:21:00,33.0,21.0,30.15,SW,218,6.0,12.0,61,0.00,,,0.00,,2013-02-26 08:21:00,
2013-02-26 03:32:00,33.0,21.0,30.14,SW,226,6.0,11.0,60,0.00,,,0.00,,2013-02-26 08:32:00,
2013-02-26 03:42:00,33.0,21.0,30.14,SW,226,6.0,11.0,60,0.00,,,0.00,,2013-02-26 08:42:00,
2013-02-26 03:52:00,33.0,21.0,30.13,SW,218,7.0,13.0,61,0.00,,,0.00,,2013-02-26 08:52:00,
2013-02-26 04:02:00,33.0,21.0,30.13,SSW,204,5.0,14.0,60,0.00,,,0.00,,2013-02-26 09:02:00,
2013-02-26 04:11:00,33.0,21.0,30.13,SSW,204,5.0,14.0,60,0.00,,,0.00,,2013-02-26 09:11:00,
2013-02-26 04:21:00,33.0,21.0,30.14,SSW,207,8.0,12.0,60,0.00,,,0.00,,2013-02-26 09:21:00,
2013-02-26 04:32:00,33.0,21.0,30.13,SW,225,5.0,11.0,60,0.00,,,0.00,,2013-02-26 09:32:00,
2013-02-26 04:43:00,33.0,21.0,30.13,SW,225,5.0,11.0,60,0.00,,,0.00,,2013-02-26 09:43:00,
2013-02-26 04:51:00,33.0,21.0,30.12,SSW,204,8.0,16.0,60,0.00,,,0.00,,2013-02-26 09:51:00,
2013-02-26 05:01:00,33.0,21.0,30.12,WSW,239,9.0,13.0,60,0.00,,,0.00,,2013-02-26 10:01:00,
2013-02-26 05:11:00,33.0,21.0,30.12,WSW,239,9.0,13.0,60,0.00,,,0.00,,2013-02-26 10:11:00,
2013-02-26 05:21:00,33.0,21.0,30.11,SW,219,5.0,11.0,61,0.00,,,0.00,,2013-02-26 10:21:00,
2013-02-26 05:32:00,33.0,21.0,30.12,WSW,244,7.0,13.0,61,0.00,,,0.00,,2013-02-26 10:32:00,
2013-02-26 05:42:00,33.0,21.0,30.12,WSW,244,7.0,13.0,61,0.00,,,0.00,,2013-02-26 10:42:00,
2013-02-26 05:52:00,33.0,21.0,30.13,SW,222,10.0,13.0,61,0.00,,,0.00,,2013-02-26 10:52:00,
2013-02-26 06:01:00,33.0,21.0,30.12,SSW,211,8.0,13.0,61,0.00,,,0.00,,2013-02-26 11:01:00,
2013-02-26 06:12:00,33.0,21.0,30.12,SSW,211,8.0,13.0,61,0.00,,,0.00,,2013-02-26 11:12:00,
2013-02-26 06:22:00,33.0,21.0,30.11,SW,229,5.0,14.0,62,0.00,,,0.00,,2013-02-26 11:22:00,
2013-02-26 06:32:00,33.0,21.0,30.12,SSE,166,7.0,13.0,61,0.00,,,0.00,,2013-02-26 11:32:00,
2013-02-26 06:42:00,33.0,21.0,30.12,SSE,166,7.0,13.0,61,0.00,,,0.00,,2013-02-26 11:42:00,
2013-02-26 06:52:00,33.0,21.0,30.11,WSW,237,11.0,17.0,62,0.00,,,0.00,,2013-02-26 11:52:00,
2013-02-26 07:02:00,33.0,22.0,30.10,West,259,10.0,19.0,63,0.00,,,0.00,,2013-02-26 12:02:00,
2013-02-26 07:11:00,33.0,22.0,30.10,West,259,10.0,19.0,63,0.00,,,0.00,,2013-02-26 12:11:00,
2013-02-26 07:22:00,33.0,22.0,30.09,SW,232,7.0,15.0,64,0.00,,,0.00,,2013-02-26 12:22:00,
2013-02-26 07:32:00,32.0,22.0,30.09,SW,224,6.0,14.0,65,0.00,,,0.00,,2013-02-26 12:32:00,
2013-02-26 07:42:00,32.0,22.0,30.09,SW,224,6.0,14.0,65,0.00,,,0.00,,2013-02-26 12:42:00,
2013-02-26 07:52:00,32.0,22.0,30.09,SSW,205,9.0,16.0,66,0.00,,,0.00,,2013-02-26 12:52:00,
2013-02-26 08:02:00,32.0,23.0,30.10,WSW,238,8.0,13.0,68,0.00,,,0.00,,2013-02-26 13:02:00,
2013-02-26 08:11:00,32.0,23.0,30.10,WSW,238,8.0,13.0,68,0.00,,,0.00,,2013-02-26 13:11:00,
2013-02-26 08:22:00,32.0,24.0,30.09,SW,222,9.0,16.0,72,0.00,,,0.00,,2013-02-26 13:22:00,
2013-02-26 08:32:00,31.0,25.0,30.09,SW,235,10.0,14.0,77,0.00,,,0.00,,2013-02-26 13:32:00,
2013-02-26 08:42:00,31.0,25.0,30.09,SW,235,10.0,14.0,77,0.00,,,0.00,,2013-02-26 13:42:00,
2013-02-26 08:52:00,31.0,26.0,30.09,WSW,253,7.0,16.0,81,0.00,,,0.00,,2013-02-26 13:52:00,
2013-02-26 09:02:00,31.0,26.0,30.07,WSW,250,8.0,14.0,80,0.00,,,0.00,,2013-02-26 14:02:00,
2013-02-26 09:11:00,31.0,26.0,30.07,WSW,250,8.0,14.0,80,0.00,,,0.00,,2013-02-26 14:11:00,
2013-02-26 09:22:00,31.0,26.0,30.06,SW,229,7.0,11.0,81,0.01,,,0.01,,2013-02-26 14:22:00,
2013-02-26 09:32:00,31.0,26.0,30.05,SW,226,6.0,12.0,82,0.01,,,0.01,,2013-02-26 14:32:00,
2013-02-26 09:42:00,31.0,26.0,30.05,SW,226,6.0,12.0,82,0.01,,,0.01,,2013-02-26 14:42:00,
2013-02-26 09:52:00,31.0,26.0,30.05,SW,226,6.0,12.0,82,0.01,,,0.01,,2013-02-26 14:52:00,
2013-02-26 10:02:00,32.0,28.0,30.03,SSW,198,4.0,6.0,85,0.03,,,0.03,,2013-02-26 15:02:00,
2013-02-26 10:12:00,32.0,28.0,30.03,SSW,198,4.0,6.0,85,0.03,,,0.03,,2013-02-26 15:12:00,
2013-02-26 10:22:00,32.0,29.0,30.02,SW,218,6.0,9.0,87,0.03,,,0.04,,2013-02-26 15:22:00,
2013-02-26 10:32:00,32.0,29.0,30.01,SW,229,5.0,9.0,88,0.05,,,0.06,,2013-02-26 15:32:00,
2013-02-26 10:42:00,32.0,29.0,30.01,SW,229,5.0,9.0,88,0.05,,,0.06,,2013-02-26 15:42:00,
2013-02-26 10:52:00,32.0,29.0,30.00,SW,229,3.0,8.0,89,0.04,,,0.06,,2013-02-26 15:52:00,
2013-02-26 11:02:00,32.0,29.0,29.99,SW,233,5.0,10.0,89,0.04,,,0.07,,2013-02-26 16:02:00,
2013-02-26 11:11:00,32.0,29.0,29.99,SW,233,5.0,10.0,89,0.04,,,0.07,,2013-02-26 16:11:00,
2013-02-26 11:22:00,33.0,30.0,29.97,SW,233,7.0,12.0,90,0.05,,,0.09,,2013-02-26 16:22:00,
2013-02-26 11:32:00,33.0,31.0,29.95,SW,224,10.0,17.0,91,0.04,,,0.10,,2013-02-26 16:32:00,
2013-02-26 11:42:00,33.0,31.0,29.95,SW,224,10.0,17.0,91,0.04,,,0.10,,2013-02-26 16:42:00,
2013-02-26 11:52:00,33.0,31.0,29.94,WSW,242,10.0,20.0,91,0.05,,,0.11,,2013-02-26 16:52:00,
2013-02-26 12:01:00,33.0,31.0,29.91,SW,229,8.0,14.0,91,0.07,,,0.14,,2013-02-26 17:01:00,
2013-02-26 12:11:00,33.0,31.0,29.91,SW,229,8.0,14.0,91,0.07,,,0.14,,2013-02-26 17:11:00,
2013-02-26 12:22:00,34.0,32.0,29.90,WSW,239,13.0,22.0,92,0.07,,,0.16,,2013-02-26 17:22:00,
2013-02-26 12:32:00,34.0,32.0,29.89,WSW,242,13.0,24.0,91,0.06,,,0.16,,2013-02-26 17:32:00,
2013-02-26 12:42:00,34.0,32.0,29.89,WSW,242,13.0,24.0,91,0.06,,,0.16,,2013-02-26 17:42:00,
2013-02-26 12:52:00,35.0,33.0,29.88,WSW,249,8.0,16.0,91,0.05,,,0.16,,2013-02-26 17:52:00,
2013-02-26 13:02:00,35.0,33.0,29.87,WNW,293,7.0,17.0,91,0.02,,,0.16,,2013-02-26 18:02:00,
2013-02-26 13:12:00,35.0,33.0,29.87,WNW,293,7.0,17.0,91,0.02,,,0.16,,2013-02-26 18:12:00,
2013-02-26 13:21:00,35.0,33.0,29.87,WSW,250,9.0,17.0,91,0.01,,,0.17,,2013-02-26 18:21:00,
2013-02-26 13:32:00,35.0,32.0,29.84,WSW,239,9.0,18.0,90,0.02,,,0.18,,2013-02-26 18:32:00,
2013-02-26 13:42:00,35.0,32.0,29.84,WSW,239,9.0,18.0,90,0.02,,,0.18,,2013-02-26 18:42:00,
2013-02-26 13:52:00,36.0,34.0,29.83,WSW,242,12.0,20.0,91,0.02,,,0.18,,2013-02-26 18:52:00,
2013-02-26 14:02:00,36.0,34.0,29.81,West,262,9.0,24.0,92,0.02,,,0.18,,2013-02-26 19:02:00,
2013-02-26 14:11:00,36.0,34.0,29.81,West,262,9.0,24.0,92,0.02,,,0.18,,2013-02-26 19:11:00,
2013-02-26 14:22:00,36.0,34.0,29.80,SW,229,10.0,20.0,91,0.01,,,0.18,,2013-02-26 19:22:00,
2013-02-26 14:32:00,36.0,34.0,29.78,SW,224,10.0,21.0,91,0.00,,,0.18,,2013-02-26 19:32:00,
2013-02-26 14:42:00,36.0,34.0,29.78,SW,224,10.0,21.0,91,0.00,,,0.18,,2013-02-26 19:42:00,
2013-02-26 14:52:00,36.0,34.0,29.77,SW,234,7.0,23.0,92,0.01,,,0.19,,2013-02-26 19:52:00,
2013-02-26 15:01:00,36.0,34.0,29.77,SW,234,7.0,23.0,92,0.01,,,0.19,,2013-02-26 20:01:00,
2013-02-26 15:11:00,36.0,34.0,29.77,SW,234,7.0,23.0,92,0.01,,,0.19,,2013-02-26 20:11:00,
2013-02-26 15:22:00,36.0,34.0,29.73,SW,215,9.0,18.0,91,0.01,,,0.19,,2013-02-26 20:22:00,
2013-02-26 15:32:00,37.0,35.0,29.72,SW,219,12.0,23.0,92,0.01,,,0.19,,2013-02-26 20:32:00,
2013-02-26 15:41:00,37.0,35.0,29.72,SW,219,12.0,23.0,92,0.01,,,0.19,,2013-02-26 20:41:00,
2013-02-26 15:52:00,36.0,34.0,29.71,SW,232,11.0,21.0,92,0.00,,,0.19,,2013-02-26 20:52:00,
2013-02-26 16:01:00,37.0,35.0,29.70,WSW,238,9.0,20.0,92,0.02,,,0.21,,2013-02-26 21:01:00,
2013-02-26 16:11:00,37.0,35.0,29.70,WSW,238,9.0,20.0,92,0.02,,,0.21,,2013-02-26 21:11:00,
2013-02-26 16:21:00,37.0,35.0,29.70,WNW,287,6.0,16.0,92,0.02,,,0.21,,2013-02-26 21:21:00,
2013-02-26 16:31:00,37.0,35.0,29.72,South,177,5.0,13.0,92,0.04,,,0.23,,2013-02-26 21:31:00,
2013-02-26 16:41:00,37.0,35.0,29.72,South,177,5.0,13.0,92,0.04,,,0.23,,2013-02-26 21:41:00,
2013-02-26 16:51:00,37.0,35.0,29.71,WSW,249,3.0,13.0,92,0.07,,,0.26,,2013-02-26 21:51:00,
2013-02-26 17:01:00,37.0,35.0,29.71,SSW,203,3.0,12.0,93,0.09,,,0.30,,2013-02-26 22:01:00,
2013-02-26 17:11:00,37.0,35.0,29.71,SSW,203,3.0,12.0,93,0.09,,,0.30,,2013-02-26 22:11:00,
2013-02-26 17:21:00,38.0,36.0,29.70,SW,222,6.0,14.0,92,0.09,,,0.30,,2013-02-26 22:21:00,
2013-02-26 17:32:00,38.0,36.0,29.69,SW,215,6.0,16.0,92,0.07,,,0.30,,2013-02-26 22:32:00,
2013-02-26 17:42:00,38.0,36.0,29.69,SW,215,6.0,16.0,92,0.07,,,0.30,,2013-02-26 22:42:00,
2013-02-26 17:51:00,38.0,36.0,29.69,SSE,156,1.0,8.0,93,0.04,,,0.30,,2013-02-26 22:51:00,
2013-02-26 18:01:00,38.0,36.0,29.68,SW,221,3.0,7.0,93,0.00,,,0.30,,2013-02-26 23:01:00,
2013-02-26 18:11:00,38.0,36.0,29.68,SW,221,3.0,7.0,93,0.00,,,0.30,,2013-02-26 23:11:00,
2013-02-26 18:21:00,39.0,37.0,29.67,SSW,204,7.0,12.0,92,0.00,,,0.30,,2013-02-26 23:21:00,
2013-02-26 18:32:00,39.0,37.0,29.67,SW,215,7.0,11.0,93,0.00,,,0.30,,2013-02-26 23:32:00,
2013-02-26 18:42:00,39.0,37.0,29.67,SW,215,7.0,11.0,93,0.00,,,0.30,,2013-02-26 23:42:00,
2013-02-26 18:52:00,39.0,37.0,29.67,SW,229,4.0,10.0,93,0.00,,,0.30,,2013-02-26 23:52:00,
2013-02-26 19:02:00,38.0,36.0,29.68,South,181,4.0,7.0,94,0.00,,,0.30,,2013-02-27 00:02:00,
2013-02-26 19:11:00,38.0,36.0,29.68,South,181,4.0,7.0,94,0.00,,,0.30,,2013-02-27 00:11:00,
2013-02-26 19:22:00,39.0,38.0,29.68,SW,219,5.0,8.0,95,0.00,,,0.30,,2013-02-27 00:22:00,
2013-02-26 19:32:00,38.0,37.0,29.66,SSW,211,6.0,9.0,95,0.00,,,0.30,,2013-02-27 00:32:00,
2013-02-26 19:42:00,38.0,37.0,29.66,SSW,211,6.0,9.0,95,0.00,,,0.30,,2013-02-27 00:42:00,
2013-02-26 19:51:00,38.0,37.0,29.67,SSW,209,3.0,7.0,95,0.00,,,0.30,,2013-02-27 00:51:00,
2013-02-26 20:01:00,38.0,37.0,29.68,SE,138,1.0,6.0,95,0.00,,,0.30,,2013-02-27 01:01:00,
2013-02-26 20:11:00,38.0,37.0,29.68,SE,138,1.0,6.0,95,0.00,,,0.30,,2013-02-27 01:11:00,
2013-02-26 20:22:00,38.0,37.0,29.69,ESE,118,0.0,4.0,95,0.00,,,0.30,,2013-02-27 01:22:00,
2013-02-26 20:32:00,38.0,37.0,29.69,SSE,153,1.0,3.0,95,0.00,,,0.30,,2013-02-27 01:32:00,
2013-02-26 20:42:00,38.0,37.0,29.69,SSE,153,1.0,3.0,95,0.00,,,0.30,,2013-02-27 01:42:00,
2013-02-26 20:52:00,38.0,37.0,29.69,SE,139,1.0,3.0,95,0.00,,,0.30,,2013-02-27 01:52:00,
2013-02-26 21:02:00,38.0,37.0,29.69,SSE,149,0.0,3.0,95,0.00,,,0.30,,2013-02-27 02:02:00,
2013-02-26 21:15:00,38.0,37.0,29.69,SSE,149,0.0,3.0,95,0.00,,,0.30,,2013-02-27 02:15:00,
2013-02-26 21:24:00,38.0,37.0,29.69,SSE,149,0.0,2.0,95,0.00,,,0.30,,2013-02-27 02:24:00,
2013-02-26 21:32:00,38.0,37.0,29.69,ESE,120,0.0,1.0,95,0.00,,,0.30,,2013-02-27 02:32:00,
2013-02-26 21:42:00,38.0,37.0,29.69,ESE,120,0.0,1.0,95,0.00,,,0.30,,2013-02-27 02:42:00,
2013-02-26 21:52:00,38.0,37.0,29.69,SE,131,0.0,2.0,95,0.00,,,0.30,,2013-02-27 02:52:00,
2013-02-26 22:02:00,38.0,37.0,29.69,SE,143,0.0,2.0,95,0.00,,,0.30,,2013-02-27 03:02:00,
2013-02-26 22:11:00,38.0,37.0,29.69,SE,143,0.0,2.0,95,0.00,,,0.30,,2013-02-27 03:11:00,
2013-02-26 22:22:00,38.0,37.0,29.68,SE,129,1.0,3.0,95,0.00,,,0.30,,2013-02-27 03:22:00,
2013-02-26 22:32:00,38.0,37.0,29.69,SE,146,1.0,5.0,95,0.00,,,0.30,,2013-02-27 03:32:00,
2013-02-26 22:42:00,38.0,37.0,29.69,SE,146,1.0,5.0,95,0.00,,,0.30,,2013-02-27 03:42:00,
2013-02-26 22:52:00,38.0,37.0,29.69,SE,146,1.0,5.0,95,0.00,,,0.30,,2013-02-27 03:52:00,
2013-02-26 23:02:00,38.0,37.0,29.69,ESE,108,0.0,0.0,95,0.00,,,0.30,,2013-02-27 04:02:00,
2013-02-26 23:11:00,38.0,37.0,29.69,ESE,108,0.0,0.0,95,0.00,,,0.30,,2013-02-27 04:11:00,
2013-02-26 23:22:00,38.0,37.0,29.69,East,86,0.0,0.0,96,0.00,,,0.30,,2013-02-27 04:22:00,
2013-02-26 23:32:00,38.0,37.0,29.68,East,86,0.0,0.0,96,0.00,,,0.30,,2013-02-27 04:32:00,
2013-02-26 23:42:00,38.0,37.0,29.68,East,86,0.0,0.0,96,0.00,,,0.30,,2013-02-27 04:42:00,
2013-02-26 23:52:00,38.0,37.0,29.68,East,86,0.0,0.0,96,0.00,,,0.30,,2013-02-27 04:52:00,